Flag for Germany Weather past 2 weeks in Goch, North Rhine-Westphalia, Germany

Now
48 °F

Passing clouds.


Feels Like: 42 °F
Forecast: 42 / 49 °F
Wind: 15 mph from South

Location: Niederrhein

Current Time: Feb 28, 2015 at 3:58:33 PM

Latest Report: Feb 28, 2015 at 3:20 PM


Visibility: N/A

Pressure: 29.95 "Hg

Humidity: 58%

Dew point: 34 °F

Location of GochLocation

Historic Weather in Goch — Graph

°F

Goch temperature yesterday

Maximum temperature yesterday: 48 °F (at 2:20 PM)
Minimum temperature yesterday: 32 °F (at 11:50 PM)
Average temperature yesterday: 42 °F

Past Weeks' High & Low Weather Summary

 TemperatureHumidityPressure
High52 °F (Feb 14, 1:50 PM)100% (Feb 14, 4:50 AM)30.74 "Hg (Feb 14, 4:50 AM)
Low27 °F (Feb 18, 4:50 AM)57% (Feb 27, 4:20 PM)29.33 "Hg (Feb 23, 2:20 PM)
Average40 °F96%29.96 "Hg
* Reported Feb 13 2:20 PM — Feb 28 2:50 PM, Goch, Weather by CustomWeather, © 2015

Note: Actual official high and low records may vary slightly from our data, if they occured in-between our weather recording intervals... More about our weather records

Advertising

Goch weather history for previous 24 hours

 ConditionsComfort  
Time TempWeatherWind HumidityBarometerVisibility
2:50 PM
Sat, Feb 28
48 °FPassing clouds.16 mph62%29.98 "HgN/A
2:20 PM46 °FPassing clouds.14 mph71%30.01 "HgN/A
1:50 PM45 °FPassing clouds.15 mph76%30.01 "HgN/A
1:20 PM45 °FPassing clouds.14 mph76%30.04 "HgN/A
12:50 PM45 °FPassing clouds.15 mph76%30.04 "HgN/A
12:20 PM45 °FPassing clouds.14 mph76%30.07 "HgN/A
11:50 AM43 °FSunny.13 mph87%30.07 "Hg10 mi
11:20 AM41 °FPassing clouds.10 mph93%30.07 "HgN/A
10:50 AM39 °FPassing clouds.10 mph100%30.07 "HgN/A
10:20 AM37 °FSunny.9 mph100%30.09 "Hg10 mi
9:50 AM36 °FPassing clouds.9 mph100%30.09 "HgN/A
9:20 AM36 °FSunny.8 mph100%30.12 "Hg10 mi
8:50 AM32 °FSunny.8 mph100%30.12 "Hg10 mi
8:20 AM32 °FClear.8 mph100%30.12 "Hg10 mi
7:50 AM30 °FClear.7 mph100%30.12 "Hg5 mi
7:20 AM30 °FClear.8 mph100%30.12 "Hg5 mi
6:50 AM30 °FClear.8 mph100%30.12 "Hg4 mi
6:20 AM30 °FClear.7 mph100%30.12 "Hg4 mi
5:50 AM30 °FClear.7 mph100%30.12 "Hg4 mi
5:20 AM30 °FClear.7 mph100%30.12 "Hg4 mi
11:50 PM
Fri, Feb 27
32 °FClear.No wind100%30.15 "Hg10 mi
11:20 PM34 °FClear.3 mph100%30.15 "Hg10 mi
10:50 PM36 °FClear.5 mph100%30.15 "Hg10 mi
10:20 PM34 °FClear.5 mph100%30.15 "Hg10 mi
9:50 PM36 °FClear.5 mph100%30.15 "Hg10 mi
9:20 PM37 °FClear.3 mph100%30.15 "Hg10 mi
8:50 PM37 °FPassing clouds.5 mph100%30.15 "HgN/A
8:20 PM39 °FPassing clouds.5 mph93%30.15 "HgN/A
7:50 PM39 °FPassing clouds.5 mph93%30.12 "HgN/A
7:20 PM41 °FPassing clouds.6 mph87%30.12 "HgN/A
6:50 PM41 °FSunny.6 mph87%30.09 "Hg10 mi
6:20 PM43 °FPassing clouds.5 mph76%30.09 "HgN/A
5:50 PM45 °FPassing clouds.6 mph71%30.07 "HgN/A
5:20 PM46 °FPassing clouds.5 mph62%30.07 "HgN/A
4:50 PM46 °FSunny.5 mph57%30.07 "Hg10 mi
4:20 PM46 °FSunny.6 mph57%30.07 "Hg10 mi
3:50 PM45 °FSunny.5 mph71%30.07 "Hg10 mi
3:20 PM45 °FSunny.5 mph66%30.04 "Hg10 mi
Weather by CustomWeather, © 2015

See weather overviewHow to use our weather pages